17:58
Airports
History
Links
Donate
Help keep this website running!
PayPal
Bitcoin
This page is community maintained. The information is intended for PC simulator navigation or reference.
Always use approved charts for navigation.
96MN
Air-Ag
Air-Ag (96MN)
Glenville, Minnesota, United States (56036)
4
Lat/Lng:43° 34' 4.85" N / 93° 15' 15.74" W
43.568013 / -93.254372
Elevation:1240'ft / 378mMSL
ID / ICAO:96MN
Runways:1
Longest:18-36
Grass 821m / 2,693ft
Nearby Weather17:35 GMT 2018-02-24
Nearby weather at KAEL, Albert Lea Muni located 9.7 nautical miles from 96MN
Altimeter: 29.89
Visibility: 5.0 statute miles
Wind: 10 knots (from 090°)
Temp: -4°c / 25°f
Humidity: 92.7%

METAR: KAEL 241735Z AUTO 09010KT 5SM BR BKN070 OVC080 M04/M05 A2989 RMK AO2

(Powered by phpweather)
Nearby VORs <50NM
Nearby NDBs
Runway 18 / 36
Dimensions:820.8 x 30.5m 2693' x 100'ft
Surface:Grass
Runway 18 [A]Runway 36 [B]
Heading:183°TH 003°TH
Lat:
Lng:
43° 34' 18.16"N
93° 15' 14.78"W
43° 33' 51.53"N
93° 15' 16.7"W
User Notes and Comments
43° 34' 4.85" N / 93° 15' 15.74" W
Distance To
Airport ID:
Nearby Airports
4 Northwood Muni 8.7 NM
5D2 SSE 162°
(U) Albert Lea Muni 9.7 NM
KAEL ( WX ) NW 323°
4 Ward 13.8 NM
MN61 NNE 16°
4 Lake Mills Muni 16.7 NM
0Y6 SW 230°
(U) Austin Muni 17.4 NM
KAUM ( WX ) ENE 67°
4 Jacobsen 21.8 NM
48MN NW 309°
4 Arneman Field 27.1 NM
82MN NW 324°
VFR Chart
Flight Planning at SkyVector.com